User: anonymous   Login
Location: Climax
(33.2048°N, 96.4497°W)
Time: 04:53:57
(UTC+00:00)
Language:

SL-4 R/B - Orbit

View from above orbital plane
View from above orbital plane
View from above satellite
View from above satellite

Ground track
Ground track

The orbit data is extracted from the following two-line orbital elements,

1 39679U 14021B   22148.23528875  .00001796  00000-0  99951-4 0  9999
2 39679  51.6167  50.1083 0164621 247.9243 110.4176 15.08592797446063
Epoch (UTC): 28 May 2022 05:38:48
Eccentricity: 0.0164621
inclination: 51.6167°
perigee height: 426 km
apogee height: 654 km
right ascension of ascending node: 50.1083°
argument of perigee: 247.9243°
revolutions per day: 15.08592797
mean anomaly at epoch: 110.4176°
orbit number at epoch: 44606

The dashed part of the orbit path shows where the satellite is in the earth's shadow,  

DLR